Powrót do katalogu

STARLINK-31457

AktywnyŁącznośćVLEO
NORAD 59414·PAYLOAD·🇺🇸 United States

Wystrzelony Apr 5, 2024 z Cape Canaveral Space Force Station

Loading…

Następne Przeloty (najbliższe 24 godziny)

TLE

ŚwieżeSource: CelesTrak SupGP

Epoka: Sep 14, 2026, 22:23 UTC

1 59414C 24064S   26257.93312500  .00060840  00000+0  22029-2 0  2575
2 59414  43.0043  60.5760 0001646 286.3502 193.1943 15.27559123    17

Śledź STARLINK-31457 w czasie rzeczywistym z AllMySat

Download on the App Store